Weather in Serpuhov

Russia / Moscow Oblast     54°54′48″N   37°25′00″E
temp.,
°C
wind,
m/s
gust,
m/s
humid.,
%
clouds,
%
prec.,
mm/h
press.,
hPa
HPBL,
m
11 may, tue
tue1100:00+6ne312790 0.0 1026276
03:00+5nne311870 0.0 1027240
06:00+6ne413840 0.0 1027435
09:00+12ne59650 0.0 1026552
12:00+16ne58575 0.0 1025778
15:00+19ene57585 0.0 10251079
18:00+19ene48696 0.0 10241148
21:00+14se3794100 0.7 1025260
12 may, wed
wed1200:00+11se269664 0.1 1027201
03:00+7sse22959 0.1 102719
06:00+8ene01905 0.0 102729
09:00+11ne1282100 0.0 1027198
12:00+15nne3562100 0.0 1024890
15:00+15ene41182100 0.2 10201215
18:00+13e31098100 3.9 1019715
21:00+9sse399850 7.9 1020400
13 may, thu
thu1300:00+6ese259816 0.0 1021103
03:00+5e379892 0.0 1021149
06:00+7e289670 0.0 1021244
09:00+12e3580100 0.0 1019384
12:00+16e4564100 0.0 1017821
15:00+18sse356099 0.0 10161279
18:00+16sse36735 0.3 1015527
21:00+12se239489 1.2 101648
14 may, fri
fri1400:00+10sse23962 0.1 101759
03:00+9sse229673 0.1 101728
06:00+11ese2595100 0.0 1017121
09:00+15se51190100 0.3 1017641
12:00+19ese6972100 0.9 1016845
15:00+20se51077100 2.6 10141076
18:00+19se61383100 5.1 1012684
21:00+16sse31191100 7.3 1011266
15 may, sat
sat1500:00+15s2495100 2.0 101185
03:00+13e119599 3.1 101012
06:00+14se36979 0.1 1010157
09:00+17s51283100 0.1 1010769
12:00+21sse476677 0.1 1009967
15:00+20s58795 1.2 1008990
18:00+19ssw49857 1.9 1007702
21:00+14s3895100 4.6 1007157